Home > Time Zones > World Clock > Weather > China > Hefei > Past weeks

Flag for China Weather past 2 weeks in Hefei, Anhui, China

Now
73 °F

Clear.


Feels Like: 72 °F
Forecast: 69 / 85 °F
Wind: 3 mph from North

Location: Hefei Airport

Current Time: Sep 3, 2015 at 8:18:40 AM

Latest Report: Sep 3, 2015 at 8:00 AM


Visibility: 4 mi

Pressure: 29.98 "Hg

Humidity: 89%

Dew point: 70 °F

Location of HefeiLocation

Historic Weather in Hefei — Graph

°F

Hefei temperature yesterday

Maximum temperature yesterday: 84 °F (at 12:00 PM)
Minimum temperature yesterday: 66 °F (at 5:00 AM)
Average temperature yesterday: 75 °F

Past Weeks' High & Low Weather Summary

 TemperatureHumidityPressure
High88 °F (Aug 22, 3:00 PM)100% (Aug 19, 4:00 PM)29.98 "Hg (Aug 19, 4:00 PM)
Low66 °F (Sep 2, 5:00 AM)49% (Aug 30, 2:00 PM)29.65 "Hg (Aug 22, 4:00 PM)
Average77 °F84%29.79 "Hg
* Reported Aug 19 7:00 AM — Sep 3 7:00 AM, Hefei, Weather by CustomWeather, © 2015

Note: Actual official high and low records may vary slightly from our data, if they occured in-between our weather recording intervals... More about our weather records

Advertising

Hefei weather history for previous 24 hours

 ConditionsComfort  
Time TempWeatherWind HumidityBarometerVisibility
7:00 AM
Thu, Sep 3
72 °FFog.1 mph94%29.98 "Hg3 mi
6:00 AM68 °FFog.3 mph100%29.95 "Hg2 mi
5:00 AM68 °FFog.1 mph100%29.95 "Hg3 mi
4:00 AM68 °FFog.1 mph100%29.95 "Hg3 mi
3:00 AM70 °FClear.No wind100%29.95 "Hg4 mi
2:00 AM70 °FClear.1 mph94%29.95 "Hg4 mi
1:00 AM70 °FClear.No wind100%29.95 "Hg5 mi
12:00 AM72 °FClear.No wind88%29.95 "Hg10 mi
11:00 PM
Wed, Sep 2
72 °FClear.No wind94%29.95 "Hg10 mi
10:00 PM73 °FClear.No wind83%29.95 "Hg10 mi
9:00 PM73 °FPassing clouds.No wind89%29.95 "HgN/A
8:00 PM77 °FClear.1 mph69%29.92 "Hg10 mi
7:00 PM77 °FClear.1 mph69%29.89 "Hg10 mi
6:00 PM79 °FSunny.1 mph70%29.89 "Hg10 mi
5:00 PM82 °FPassing clouds.8 mph58%29.89 "HgN/A
4:00 PM84 °FPassing clouds.8 mph55%29.89 "HgN/A
3:00 PM82 °FPassing clouds.10 mph55%29.89 "HgN/A
2:00 PM84 °FPassing clouds.8 mph55%29.89 "HgN/A
1:00 PM84 °FPassing clouds.10 mph51%29.92 "HgN/A
12:00 PM84 °FPassing clouds.10 mph51%29.92 "HgN/A
11:00 AM81 °FPassing clouds.8 mph58%29.95 "HgN/A
10:00 AM79 °FPassing clouds.8 mph65%29.95 "HgN/A
9:00 AM77 °FPassing clouds.6 mph74%29.95 "HgN/A
8:00 AM73 °FFog.6 mph89%29.95 "Hg3 mi
Weather by CustomWeather, © 2015

See weather overviewHow to use our weather pages